Time,TemperatureF,DewpointF,PressureIn,WindDirection,WindDirectionDegrees,WindSpeedMPH,WindSpeedGustMPH,Humidity,HourlyPrecipIn,Conditions,Clouds,dailyrainin,SoftwareType,DateUTC
2013-01-07 00:03:00,30.0,22.0,-100.00,NW,310,1.0,3.0,73,0.00,,,-99.99,,2013-01-07 05:03:00,
2013-01-07 00:12:00,30.0,22.0,-100.00,West,260,1.0,4.0,73,0.00,,,-99.99,,2013-01-07 05:12:00,
2013-01-07 00:22:00,30.0,22.0,-100.00,North,0,1.0,3.0,73,0.00,,,-99.99,,2013-01-07 05:22:00,
2013-01-07 00:33:00,30.0,23.0,-100.00,NNW,340,0.0,2.0,73,0.00,,,-99.99,,2013-01-07 05:33:00,
2013-01-07 00:42:00,30.0,22.0,-100.00,WSW,255,1.0,3.0,73,0.00,,,-99.99,,2013-01-07 05:42:00,
2013-01-07 00:52:00,30.0,23.0,-100.00,WNW,290,0.0,3.0,73,0.00,,,-99.99,,2013-01-07 05:52:00,
2013-01-07 01:02:00,30.0,23.0,-100.00,North,5,0.0,2.0,73,0.00,,,-99.99,,2013-01-07 06:02:00,
2013-01-07 01:12:00,30.0,23.0,-100.00,NNW,330,1.0,3.0,73,0.00,,,-99.99,,2013-01-07 06:12:00,
2013-01-07 01:22:00,30.0,23.0,-100.00,WNW,285,0.0,2.0,73,0.00,,,-99.99,,2013-01-07 06:22:00,
2013-01-07 01:32:00,30.0,23.0,-100.00,NW,310,0.0,1.0,73,0.00,,,-99.99,,2013-01-07 06:32:00,
2013-01-07 01:42:00,30.0,23.0,-100.00,South,175,1.0,2.0,74,0.00,,,-99.99,,2013-01-07 06:42:00,
2013-01-07 01:52:00,30.0,23.0,-100.00,SW,215,0.0,3.0,74,0.00,,,-99.99,,2013-01-07 06:52:00,
2013-01-07 02:02:00,30.0,23.0,-100.00,SSW,210,0.0,2.0,74,0.00,,,-99.99,,2013-01-07 07:02:00,
2013-01-07 02:12:00,30.0,23.0,-100.00,WSW,240,1.0,2.0,75,0.00,,,-99.99,,2013-01-07 07:12:00,
2013-01-07 02:22:00,30.0,23.0,-100.00,SW,220,1.0,2.0,75,0.00,,,-99.99,,2013-01-07 07:22:00,
2013-01-07 02:33:00,30.0,23.0,-100.00,WSW,240,1.0,3.0,76,0.00,,,-99.99,,2013-01-07 07:33:00,
2013-01-07 02:42:00,30.0,23.0,-100.00,SW,225,1.0,2.0,75,0.00,,,-99.99,,2013-01-07 07:42:00,
2013-01-07 02:52:00,30.0,23.0,-100.00,SSW,210,1.0,2.0,75,0.00,,,-99.99,,2013-01-07 07:52:00,
2013-01-07 03:03:00,30.0,23.0,-100.00,SSW,210,1.0,3.0,75,0.00,,,-99.99,,2013-01-07 08:03:00,
2013-01-07 03:12:00,30.0,23.0,-100.00,SSW,205,1.0,3.0,76,0.00,,,-99.99,,2013-01-07 08:12:00,
2013-01-07 03:22:00,29.0,23.0,-100.00,SSW,200,1.0,3.0,77,0.00,,,-99.99,,2013-01-07 08:22:00,
2013-01-07 03:33:00,29.0,23.0,-100.00,South,185,1.0,2.0,78,0.00,,,-99.99,,2013-01-07 08:33:00,
2013-01-07 03:42:00,29.0,23.0,-100.00,SW,215,1.0,3.0,78,0.00,,,-99.99,,2013-01-07 08:42:00,
2013-01-07 03:52:00,29.0,23.0,-100.00,West,270,0.0,2.0,79,0.00,,,-99.99,,2013-01-07 08:52:00,
2013-01-07 04:02:00,28.0,23.0,-100.00,West,260,0.0,2.0,79,0.00,,,-99.99,,2013-01-07 09:02:00,
2013-01-07 04:12:00,28.0,23.0,-100.00,SW,230,2.0,5.0,81,0.00,,,-99.99,,2013-01-07 09:12:00,
2013-01-07 04:22:00,28.0,23.0,-100.00,WSW,245,1.0,3.0,81,0.00,,,-99.99,,2013-01-07 09:22:00,
2013-01-07 04:32:00,27.0,22.0,-100.00,NNW,345,0.0,1.0,81,0.00,,,-99.99,,2013-01-07 09:32:00,
2013-01-07 04:42:00,27.0,22.0,-100.00,SW,225,1.0,2.0,82,0.00,,,-99.99,,2013-01-07 09:42:00,
2013-01-07 04:52:00,27.0,22.0,-100.00,SW,230,1.0,3.0,82,0.00,,,-99.99,,2013-01-07 09:52:00,
2013-01-07 05:02:00,26.0,22.0,-100.00,SW,235,1.0,3.0,83,0.00,,,-99.99,,2013-01-07 10:02:00,
2013-01-07 05:12:00,26.0,22.0,-100.00,SW,225,0.0,2.0,84,0.00,,,-99.99,,2013-01-07 10:12:00,
2013-01-07 05:22:00,26.0,22.0,-100.00,SW,230,1.0,3.0,84,0.00,,,-99.99,,2013-01-07 10:22:00,
2013-01-07 05:32:00,26.0,22.0,-100.00,SW,215,1.0,3.0,84,0.00,,,-99.99,,2013-01-07 10:32:00,
2013-01-07 05:42:00,26.0,22.0,-100.00,SSW,200,1.0,4.0,85,0.00,,,-99.99,,2013-01-07 10:42:00,
2013-01-07 05:52:00,26.0,22.0,-100.00,SW,235,1.0,3.0,85,0.00,,,-99.99,,2013-01-07 10:52:00,
2013-01-07 06:02:00,25.0,21.0,-100.00,NE,50,1.0,3.0,85,0.00,,,-99.99,,2013-01-07 11:02:00,
2013-01-07 06:12:00,26.0,22.0,-100.00,SW,220,1.0,3.0,86,0.00,,,-99.99,,2013-01-07 11:12:00,
2013-01-07 06:23:00,25.0,22.0,-100.00,SW,215,1.0,3.0,85,0.00,,,-99.99,,2013-01-07 11:23:00,
2013-01-07 06:33:00,26.0,22.0,-100.00,SW,220,0.0,3.0,85,0.00,,,-99.99,,2013-01-07 11:33:00,
2013-01-07 06:43:00,25.0,22.0,-100.00,WNW,295,0.0,5.0,85,0.00,,,-99.99,,2013-01-07 11:43:00,
2013-01-07 06:53:00,25.0,21.0,-100.00,WSW,245,1.0,3.0,85,0.00,,,-99.99,,2013-01-07 11:53:00,
2013-01-07 07:03:00,25.0,21.0,-100.00,WSW,240,2.0,5.0,86,0.00,,,-99.99,,2013-01-07 12:03:00,
2013-01-07 07:12:00,25.0,21.0,-100.00,SW,225,2.0,4.0,86,0.00,,,-99.99,,2013-01-07 12:12:00,
2013-01-07 07:22:00,25.0,21.0,-100.00,SW,225,2.0,4.0,86,0.00,,,-99.99,,2013-01-07 12:22:00,
2013-01-07 07:33:00,25.0,21.0,-100.00,SW,225,2.0,4.0,86,0.00,,,-99.99,,2013-01-07 12:33:00,
2013-01-07 07:43:00,25.0,21.0,-100.00,SW,225,2.0,4.0,86,0.00,,,-99.99,,2013-01-07 12:43:00,
2013-01-07 07:52:00,25.0,21.0,-100.00,SW,225,2.0,4.0,86,0.00,,,-99.99,,2013-01-07 12:52:00,
2013-01-07 09:43:00,26.0,22.0,-100.00,NNE,25,0.0,-999.0,86,0.55,,,-99.99,,2013-01-07 14:43:00,
2013-01-07 09:53:00,27.0,23.0,-100.00,SSW,210,1.0,3.0,85,0.55,,,-99.99,,2013-01-07 14:53:00,
2013-01-07 10:03:00,27.0,23.0,-100.00,SSE,160,1.0,4.0,83,1.10,,,-99.99,,2013-01-07 15:03:00,
2013-01-07 10:12:00,28.0,23.0,-100.00,East,100,1.0,5.0,82,0.00,,,-99.99,,2013-01-07 15:12:00,
2013-01-07 10:22:00,29.0,23.0,-100.00,SSE,160,1.0,4.0,78,0.00,,,-99.99,,2013-01-07 15:22:00,
2013-01-07 10:33:00,29.0,23.0,-100.00,ENE,60,1.0,4.0,77,0.00,,,-99.99,,2013-01-07 15:33:00,
2013-01-07 10:43:00,30.0,24.0,-100.00,ENE,60,1.0,3.0,76,0.00,,,-99.99,,2013-01-07 15:43:00,
2013-01-07 10:53:00,31.0,24.0,-100.00,East,95,1.0,4.0,74,0.00,,,-99.99,,2013-01-07 15:53:00,
2013-01-07 11:03:00,31.0,24.0,-100.00,West,265,1.0,4.0,75,0.55,,,-99.99,,2013-01-07 16:03:00,
2013-01-07 11:12:00,31.0,24.0,-100.00,West,265,1.0,4.0,75,0.55,,,-99.99,,2013-01-07 16:12:00,
2013-01-07 11:22:00,32.0,24.0,-100.00,South,170,1.0,5.0,71,0.00,,,-99.99,,2013-01-07 16:22:00,
2013-01-07 11:33:00,32.0,24.0,-100.00,SW,235,1.0,7.0,72,0.00,,,-99.99,,2013-01-07 16:33:00,
2013-01-07 11:43:00,32.0,24.0,-100.00,WSW,240,2.0,4.0,71,0.00,,,-99.99,,2013-01-07 16:43:00,
2013-01-07 11:53:00,32.0,24.0,-100.00,SW,235,2.0,6.0,72,0.00,,,-99.99,,2013-01-07 16:53:00,
2013-01-07 12:03:00,34.0,26.0,-100.00,SW,215,1.0,4.0,70,0.00,,,-99.99,,2013-01-07 17:03:00,
2013-01-07 12:12:00,34.0,26.0,-100.00,SW,215,1.0,4.0,70,0.00,,,-99.99,,2013-01-07 17:12:00,
2013-01-07 12:23:00,34.0,25.0,-100.00,SSW,210,2.0,6.0,68,0.00,,,-99.99,,2013-01-07 17:23:00,
2013-01-07 12:33:00,35.0,25.0,-100.00,SW,215,2.0,5.0,66,0.00,,,-99.99,,2013-01-07 17:33:00,
2013-01-07 12:42:00,35.0,25.0,-100.00,WSW,240,3.0,6.0,66,0.00,,,-99.99,,2013-01-07 17:42:00,
2013-01-07 12:53:00,37.0,26.0,-100.00,SSW,210,2.0,6.0,64,0.00,,,-99.99,,2013-01-07 17:53:00,
2013-01-07 13:03:00,37.0,26.0,-100.00,WSW,240,3.0,6.0,63,0.00,,,-99.99,,2013-01-07 18:03:00,
2013-01-07 13:12:00,37.0,25.0,-100.00,SW,215,4.0,8.0,61,0.00,,,-99.99,,2013-01-07 18:12:00,
2013-01-07 13:23:00,38.0,26.0,-100.00,SW,220,2.0,7.0,61,0.00,,,-99.99,,2013-01-07 18:23:00,
2013-01-07 13:33:00,38.0,25.0,-100.00,SW,220,4.0,7.0,59,0.00,,,-99.99,,2013-01-07 18:33:00,
2013-01-07 13:42:00,39.0,26.0,-100.00,SW,235,4.0,7.0,59,0.00,,,-99.99,,2013-01-07 18:42:00,
2013-01-07 13:52:00,39.0,26.0,-100.00,SSW,195,4.0,7.0,59,0.00,,,-99.99,,2013-01-07 18:52:00,
2013-01-07 14:03:00,39.0,25.0,-100.00,South,175,4.0,8.0,56,0.00,,,-99.99,,2013-01-07 19:03:00,
2013-01-07 14:12:00,39.0,26.0,-100.00,South,180,4.0,9.0,57,0.00,,,-99.99,,2013-01-07 19:12:00,
2013-01-07 14:23:00,40.0,25.0,-100.00,SSW,200,4.0,7.0,56,0.00,,,-99.99,,2013-01-07 19:23:00,
2013-01-07 14:33:00,40.0,26.0,-100.00,SW,230,4.0,8.0,57,0.00,,,-99.99,,2013-01-07 19:33:00,
2013-01-07 14:43:00,39.0,25.0,-100.00,SW,220,4.0,9.0,56,0.00,,,-99.99,,2013-01-07 19:43:00,
2013-01-07 14:52:00,40.0,26.0,-100.00,SSW,205,4.0,9.0,56,0.00,,,-99.99,,2013-01-07 19:52:00,
2013-01-07 15:03:00,40.0,26.0,-100.00,SW,220,5.0,7.0,56,0.00,,,-99.99,,2013-01-07 20:03:00,
2013-01-07 15:12:00,40.0,26.0,-100.00,SW,220,5.0,7.0,56,0.00,,,-99.99,,2013-01-07 20:12:00,
2013-01-07 15:23:00,40.0,25.0,-100.00,SW,235,6.0,9.0,54,0.00,,,-99.99,,2013-01-07 20:23:00,
2013-01-07 15:33:00,41.0,26.0,-100.00,SW,235,3.0,6.0,53,0.00,,,-99.99,,2013-01-07 20:33:00,
2013-01-07 15:42:00,41.0,26.0,-100.00,SSW,200,2.0,6.0,54,0.00,,,-99.99,,2013-01-07 20:42:00,
2013-01-07 15:53:00,41.0,26.0,-100.00,SSW,210,4.0,6.0,54,0.00,,,-99.99,,2013-01-07 20:53:00,
2013-01-07 16:03:00,41.0,26.0,-100.00,SSW,200,2.0,6.0,53,0.00,,,-99.99,,2013-01-07 21:03:00,
2013-01-07 16:12:00,41.0,25.0,-100.00,SSW,210,3.0,6.0,52,0.00,,,-99.99,,2013-01-07 21:12:00,
2013-01-07 16:23:00,42.0,26.0,-100.00,SSW,200,3.0,6.0,52,0.00,,,-99.99,,2013-01-07 21:23:00,
2013-01-07 16:33:00,41.0,26.0,-100.00,SSW,205,2.0,4.0,53,0.00,,,-99.99,,2013-01-07 21:33:00,
2013-01-07 16:43:00,41.0,26.0,-100.00,South,175,3.0,7.0,55,0.00,,,-99.99,,2013-01-07 21:43:00,
2013-01-07 16:52:00,41.0,26.0,-100.00,SSE,165,2.0,6.0,55,0.00,,,-99.99,,2013-01-07 21:52:00,
2013-01-07 17:03:00,41.0,26.0,-100.00,South,190,1.0,6.0,54,0.00,,,-99.99,,2013-01-07 22:03:00,
2013-01-07 17:12:00,40.0,26.0,-100.00,SSE,150,1.0,6.0,57,0.00,,,-99.99,,2013-01-07 22:12:00,
2013-01-07 17:23:00,40.0,26.0,-100.00,South,180,2.0,4.0,58,0.00,,,-99.99,,2013-01-07 22:23:00,
2013-01-07 17:33:00,40.0,27.0,-100.00,South,185,2.0,6.0,59,0.00,,,-99.99,,2013-01-07 22:33:00,
2013-01-07 17:43:00,39.0,27.0,-100.00,SW,230,2.0,4.0,61,0.00,,,-99.99,,2013-01-07 22:43:00,
2013-01-07 18:02:00,38.0,26.0,-100.00,SW,220,3.0,6.0,61,0.00,,,-99.99,,2013-01-07 23:02:00,
2013-01-07 18:12:00,37.0,26.0,-100.00,SW,215,2.0,7.0,63,0.00,,,-99.99,,2013-01-07 23:12:00,
2013-01-07 18:22:00,36.0,26.0,-100.00,SW,235,2.0,5.0,67,0.00,,,-99.99,,2013-01-07 23:22:00,
2013-01-07 18:33:00,35.0,26.0,-100.00,SW,235,2.0,6.0,68,0.00,,,-99.99,,2013-01-07 23:33:00,
2013-01-07 18:43:00,34.0,26.0,-100.00,WSW,240,4.0,6.0,69,0.00,,,-99.99,,2013-01-07 23:43:00,
2013-01-07 18:53:00,34.0,25.0,-100.00,SW,230,2.0,6.0,70,0.00,,,-99.99,,2013-01-07 23:53:00,
2013-01-07 19:03:00,33.0,25.0,-100.00,SW,215,2.0,5.0,72,0.00,,,-99.99,,2013-01-08 00:03:00,
2013-01-07 19:12:00,33.0,26.0,-100.00,South,190,1.0,4.0,74,0.00,,,-99.99,,2013-01-08 00:12:00,
2013-01-07 19:22:00,33.0,26.0,-100.00,South,175,1.0,4.0,75,0.00,,,-99.99,,2013-01-08 00:22:00,
2013-01-07 19:33:00,34.0,26.0,-100.00,SE,145,2.0,4.0,70,0.00,,,-99.99,,2013-01-08 00:33:00,
2013-01-07 19:42:00,35.0,26.0,-100.00,SSE,150,2.0,5.0,68,0.00,,,-99.99,,2013-01-08 00:42:00,
2013-01-07 19:52:00,35.0,26.0,-100.00,SSE,150,2.0,5.0,68,0.00,,,-99.99,,2013-01-08 00:52:00,
2013-01-07 20:03:00,35.0,25.0,-100.00,SSW,195,2.0,4.0,66,0.00,,,-99.99,,2013-01-08 01:03:00,
2013-01-07 20:12:00,35.0,26.0,-100.00,SSW,210,2.0,4.0,69,0.00,,,-99.99,,2013-01-08 01:12:00,
2013-01-07 20:22:00,34.0,25.0,-100.00,WSW,240,2.0,3.0,68,0.00,,,-99.99,,2013-01-08 01:22:00,
2013-01-07 20:33:00,34.0,25.0,-100.00,SW,235,2.0,4.0,67,0.00,,,-99.99,,2013-01-08 01:33:00,
2013-01-07 20:42:00,34.0,25.0,-100.00,SSW,210,1.0,4.0,67,0.00,,,-99.99,,2013-01-08 01:42:00,
2013-01-07 20:52:00,34.0,25.0,-100.00,SW,235,2.0,5.0,68,0.00,,,-99.99,,2013-01-08 01:52:00,
2013-01-07 21:02:00,34.0,25.0,-100.00,SW,230,1.0,3.0,68,0.00,,,-99.99,,2013-01-08 02:02:00,
2013-01-07 21:12:00,33.0,24.0,-100.00,SW,235,1.0,3.0,71,0.00,,,-99.99,,2013-01-08 02:12:00,
2013-01-07 21:22:00,31.0,24.0,-100.00,SW,230,1.0,4.0,73,0.00,,,-99.99,,2013-01-08 02:22:00,
2013-01-07 21:33:00,31.0,24.0,-100.00,WSW,240,1.0,4.0,76,0.00,,,-99.99,,2013-01-08 02:33:00,
2013-01-07 21:42:00,31.0,24.0,-100.00,SW,235,2.0,4.0,76,0.00,,,-99.99,,2013-01-08 02:42:00,
2013-01-07 21:53:00,31.0,25.0,-100.00,ESE,105,0.0,1.0,76,0.00,,,-99.99,,2013-01-08 02:53:00,
2013-01-07 22:03:00,29.0,23.0,-100.00,NNW,335,0.0,2.0,77,0.00,,,-99.99,,2013-01-08 03:03:00,
2013-01-07 22:12:00,28.0,23.0,-100.00,NNW,345,1.0,2.0,81,0.00,,,-99.99,,2013-01-08 03:12:00,
2013-01-07 22:22:00,28.0,23.0,-100.00,North,355,1.0,2.0,83,0.00,,,-99.99,,2013-01-08 03:22:00,
2013-01-07 22:32:00,27.0,23.0,-100.00,North,355,0.0,2.0,84,0.00,,,-99.99,,2013-01-08 03:32:00,
2013-01-07 22:43:00,27.0,23.0,-100.00,NNW,330,1.0,2.0,84,0.00,,,-99.99,,2013-01-08 03:43:00,
2013-01-07 22:52:00,27.0,24.0,-100.00,NE,35,1.0,2.0,86,0.00,,,-99.99,,2013-01-08 03:52:00,
2013-01-07 23:02:00,27.0,23.0,-100.00,North,0,1.0,3.0,86,0.00,,,-99.99,,2013-01-08 04:02:00,
2013-01-07 23:12:00,26.0,23.0,-100.00,NNW,345,0.0,1.0,87,0.00,,,-99.99,,2013-01-08 04:12:00,
2013-01-07 23:22:00,27.0,23.0,-100.00,NW,315,0.0,1.0,87,0.00,,,-99.99,,2013-01-08 04:22:00,
2013-01-07 23:32:00,27.0,24.0,-100.00,NE,50,0.0,2.0,88,0.00,,,-99.99,,2013-01-08 04:32:00,
2013-01-07 23:42:00,27.0,24.0,-100.00,SSW,210,0.0,2.0,87,0.00,,,-99.99,,2013-01-08 04:42:00,
2013-01-07 23:52:00,27.0,24.0,-100.00,WSW,250,1.0,4.0,87,0.00,,,-99.99,,2013-01-08 04:52:00,